Location: Moscow
(38.8570°N, 84.2291°W)
Time: 12:01:51
(UTC+00:00)

AO-85 - Visible Passes

Search period start: 15 March 2026 00:00
Search period end: 25 March 2026 00:00
Orbit: 507 x 686 km, 64.8° (Epoch: 14 March)

Date Brightness Start Highest point End Pass type
(mag) Time Alt. Az. Time Alt. Az. Time Alt. Az.
15 Mar ? 08:55:44 18° ENE 08:55:44 18° ENE 08:57:00 10° NE visible
15 Mar ? 10:32:25 22° WNW 10:32:52 23° NW 10:36:01 10° N visible
16 Mar ? 09:05:53 22° NE 09:05:53 22° NE 09:07:21 10° NE visible
16 Mar ? 10:42:33 13° NW 10:43:11 13° NW 10:45:10 10° NNW visible
17 Mar ? 09:15:56 22° NNE 09:15:56 22° NNE 09:17:25 10° NNE visible
18 Mar ? 09:25:54 19° N 09:25:54 19° N 09:27:14 10° NNE visible
19 Mar ? 09:35:47 14° NNW 09:35:47 14° NNW 09:36:45 10° N visible
20 Mar ? 09:45:38 10° NNW 09:45:38 10° NNW 09:45:39 10° NNW visible
